Time,TemperatureF,DewpointF,PressureIn,WindDirection,WindDirectionDegrees,WindSpeedMPH,WindSpeedGustMPH,Humidity,HourlyPrecipIn,Conditions,Clouds,dailyrainin,SoftwareType,DateUTC
2013-07-20 00:01:00,80.0,74.7,30.01,SSW,198,0.0,2.0,84,0.00,,SCT250,0.00,VWS V14.01,2013-07-20 04:01:00,
2013-07-20 00:06:00,79.9,74.6,30.01,WSW,237,1.0,4.0,84,0.00,,SCT250,0.00,VWS V14.01,2013-07-20 04:06:00,
2013-07-20 00:11:00,79.9,74.6,30.01,SSE,167,1.0,2.0,84,0.00,,SCT250,0.00,VWS V14.01,2013-07-20 04:11:00,
2013-07-20 00:16:00,79.7,74.4,30.01,SW,222,0.0,3.0,84,0.00,,SCT250,0.00,VWS V14.01,2013-07-20 04:16:00,
2013-07-20 00:21:00,79.7,74.4,30.01,West,261,0.0,1.0,84,0.00,,SCT250,0.00,VWS V14.01,2013-07-20 04:21:00,
2013-07-20 00:26:00,79.6,74.3,30.01,East,101,0.0,3.0,84,0.00,,SCT250,0.00,VWS V14.01,2013-07-20 04:26:00,
2013-07-20 00:31:00,79.5,74.2,30.01,WSW,247,0.0,3.0,84,0.00,,SCT250,0.00,VWS V14.01,2013-07-20 04:31:00,
2013-07-20 00:36:00,79.4,74.2,30.00,SSE,157,1.0,4.0,84,0.00,,SCT250,0.00,VWS V14.01,2013-07-20 04:36:00,
2013-07-20 00:41:00,79.4,74.2,30.00,SW,233,0.0,2.0,84,0.00,,SCT250,0.00,VWS V14.01,2013-07-20 04:41:00,
2013-07-20 00:46:00,79.3,74.1,30.00,WSW,243,0.0,3.0,84,0.00,,SCT250,0.00,VWS V14.01,2013-07-20 04:46:00,
2013-07-20 00:51:00,79.3,74.1,30.00,ESE,110,2.0,3.0,84,0.00,,SCT250,0.00,VWS V14.01,2013-07-20 04:51:00,
2013-07-20 00:56:00,79.2,74.3,30.00,WSW,246,3.0,4.0,85,0.00,,FEW250,0.00,VWS V14.01,2013-07-20 04:56:00,
2013-07-20 01:01:00,79.2,74.3,30.00,SSW,212,0.0,3.0,85,0.00,,FEW250,0.00,VWS V14.01,2013-07-20 05:01:00,
2013-07-20 01:06:00,79.1,74.2,30.00,South,173,2.0,3.0,85,0.00,,FEW250,0.00,VWS V14.01,2013-07-20 05:06:00,
2013-07-20 01:11:00,79.1,74.2,30.00,South,187,1.0,4.0,85,0.00,,FEW250,0.00,VWS V14.01,2013-07-20 05:11:00,
2013-07-20 01:16:00,79.0,74.1,30.00,West,271,0.0,3.0,85,0.00,,FEW250,0.00,VWS V14.01,2013-07-20 05:16:00,
2013-07-20 01:21:00,79.0,74.1,30.00,SW,229,0.0,5.0,85,0.00,,FEW250,0.00,VWS V14.01,2013-07-20 05:21:00,
2013-07-20 01:26:00,78.9,74.0,30.00,SW,233,0.0,3.0,85,0.00,,FEW250,0.00,VWS V14.01,2013-07-20 05:26:00,
2013-07-20 01:31:00,78.8,73.9,30.00,ESE,121,1.0,2.0,85,0.00,,FEW250,0.00,VWS V14.01,2013-07-20 05:31:00,
2013-07-20 01:36:00,78.7,74.2,30.00,SSW,200,1.0,6.0,86,0.00,,FEW250,0.00,VWS V14.01,2013-07-20 05:36:00,
2013-07-20 01:41:00,78.6,74.1,30.00,West,264,0.0,5.0,86,0.00,,FEW250,0.00,VWS V14.01,2013-07-20 05:41:00,
2013-07-20 01:46:00,78.5,74.0,29.99,SE,134,2.0,3.0,86,0.00,,FEW250,0.00,VWS V14.01,2013-07-20 05:46:00,
2013-07-20 01:51:00,78.5,74.0,29.99,SW,224,3.0,5.0,86,0.00,,FEW250,0.00,VWS V14.01,2013-07-20 05:51:00,
2013-07-20 01:56:00,78.4,74.2,29.99,NNW,335,3.0,4.0,87,0.00,,FEW250,0.00,VWS V14.01,2013-07-20 05:56:00,
2013-07-20 02:01:00,78.3,74.1,29.99,West,260,0.0,4.0,87,0.00,,FEW250,0.00,VWS V14.01,2013-07-20 06:01:00,
2013-07-20 02:06:00,78.3,74.1,29.99,WSW,257,1.0,2.0,87,0.00,,FEW250,0.00,VWS V14.01,2013-07-20 06:06:00,
2013-07-20 02:11:00,78.2,74.0,29.99,SE,138,1.0,3.0,87,0.00,,FEW250,0.00,VWS V14.01,2013-07-20 06:11:00,
2013-07-20 02:16:00,78.1,73.9,29.99,SSE,154,1.0,2.0,87,0.00,,FEW250,0.00,VWS V14.01,2013-07-20 06:16:00,
2013-07-20 02:21:00,78.1,73.9,29.99,West,275,2.0,3.0,87,0.00,,FEW250,0.00,VWS V14.01,2013-07-20 06:21:00,
2013-07-20 02:26:00,78.1,73.9,29.99,West,260,3.0,4.0,87,0.00,,FEW250,0.00,VWS V14.01,2013-07-20 06:26:00,
2013-07-20 02:31:00,78.0,73.8,29.98,SSW,212,2.0,4.0,87,0.00,,FEW250,0.00,VWS V14.01,2013-07-20 06:31:00,
2013-07-20 02:36:00,77.9,73.7,29.99,WSW,238,2.0,3.0,87,0.00,,FEW250,0.00,VWS V14.01,2013-07-20 06:36:00,
2013-07-20 02:41:00,77.9,74.1,29.99,SW,223,2.0,4.0,88,0.00,,FEW250,0.00,VWS V14.01,2013-07-20 06:41:00,
2013-07-20 02:46:00,77.8,74.0,29.99,WSW,239,1.0,3.0,88,0.00,,FEW250,0.00,VWS V14.01,2013-07-20 06:46:00,
2013-07-20 02:51:00,77.7,73.9,29.99,SW,218,0.0,3.0,88,0.00,,FEW250,0.00,VWS V14.01,2013-07-20 06:51:00,
2013-07-20 02:56:00,77.6,73.8,29.99,WSW,242,1.0,4.0,88,0.00,,BKN250,0.00,VWS V14.01,2013-07-20 06:56:00,
2013-07-20 03:01:00,77.5,73.7,29.99,WSW,244,1.0,2.0,88,0.00,,BKN250,0.00,VWS V14.01,2013-07-20 07:01:00,
2013-07-20 03:06:00,77.5,73.7,29.99,SW,232,2.0,2.0,88,0.00,,BKN250,0.00,VWS V14.01,2013-07-20 07:06:00,
2013-07-20 03:11:00,77.5,73.7,29.99,SSE,153,1.0,4.0,88,0.00,,BKN250,0.00,VWS V14.01,2013-07-20 07:11:00,
2013-07-20 03:16:00,77.4,73.6,29.99,West,269,1.0,4.0,88,0.00,,BKN250,0.00,VWS V14.01,2013-07-20 07:16:00,
2013-07-20 03:21:00,77.4,73.6,29.99,WSW,239,2.0,4.0,88,0.00,,BKN250,0.00,VWS V14.01,2013-07-20 07:21:00,
2013-07-20 03:26:00,77.4,73.6,29.99,SW,214,3.0,4.0,88,0.00,,BKN250,0.00,VWS V14.01,2013-07-20 07:26:00,
2013-07-20 03:31:00,77.4,73.6,29.99,West,272,0.0,4.0,88,0.00,,BKN250,0.00,VWS V14.01,2013-07-20 07:31:00,
2013-07-20 03:36:00,77.4,73.6,29.99,WSW,249,3.0,4.0,88,0.00,,BKN250,0.00,VWS V14.01,2013-07-20 07:36:00,
2013-07-20 03:41:00,77.3,73.5,29.99,SW,232,0.0,3.0,88,0.00,,BKN250,0.00,VWS V14.01,2013-07-20 07:41:00,
2013-07-20 03:46:00,77.3,73.5,29.99,SSW,201,1.0,5.0,88,0.00,,BKN250,0.00,VWS V14.01,2013-07-20 07:46:00,
2013-07-20 03:51:00,77.2,73.4,29.99,South,188,0.0,5.0,88,0.00,,BKN250,0.00,VWS V14.01,2013-07-20 07:51:00,
2013-07-20 03:56:00,77.2,73.4,29.99,West,261,3.0,4.0,88,0.00,,BKN250,0.00,VWS V14.01,2013-07-20 07:56:00,
2013-07-20 04:01:00,77.2,73.4,29.99,SW,235,2.0,4.0,88,0.00,,BKN250,0.00,VWS V14.01,2013-07-20 08:01:00,
2013-07-20 04:06:00,77.2,73.4,29.99,South,188,1.0,4.0,88,0.00,,BKN250,0.00,VWS V14.01,2013-07-20 08:06:00,
2013-07-20 04:11:00,77.1,73.3,29.99,SW,217,1.0,5.0,88,0.00,,BKN250,0.00,VWS V14.01,2013-07-20 08:11:00,
2013-07-20 04:16:00,77.1,73.3,29.99,SE,127,0.0,3.0,88,0.00,,BKN250,0.00,VWS V14.01,2013-07-20 08:16:00,
2013-07-20 04:21:00,77.1,73.3,29.99,SW,233,0.0,3.0,88,0.00,,BKN250,0.00,VWS V14.01,2013-07-20 08:21:00,
2013-07-20 04:26:00,77.0,73.2,29.99,WSW,238,2.0,5.0,88,0.00,,BKN250,0.00,VWS V14.01,2013-07-20 08:26:00,
2013-07-20 04:31:00,76.9,73.1,29.99,ESE,117,0.0,3.0,88,0.00,,BKN250,0.00,VWS V14.01,2013-07-20 08:31:00,
2013-07-20 04:36:00,76.9,73.1,29.99,West,266,1.0,4.0,88,0.00,,BKN250,0.00,VWS V14.01,2013-07-20 08:36:00,
2013-07-20 04:41:00,76.9,73.1,29.99,SW,217,2.0,6.0,88,0.00,,BKN250,0.00,VWS V14.01,2013-07-20 08:41:00,
2013-07-20 04:46:00,76.9,73.1,29.99,WSW,250,1.0,6.0,88,0.00,,BKN250,0.00,VWS V14.01,2013-07-20 08:46:00,
2013-07-20 04:51:00,76.8,73.0,29.99,SW,236,0.0,5.0,88,0.00,,BKN250,0.00,VWS V14.01,2013-07-20 08:51:00,
2013-07-20 04:56:00,76.8,73.3,29.99,SW,223,2.0,5.0,89,0.00,,BKN250,0.00,VWS V14.01,2013-07-20 08:56:00,
2013-07-20 05:01:00,76.8,73.3,29.99,West,278,2.0,5.0,89,0.00,,BKN250,0.00,VWS V14.01,2013-07-20 09:01:00,
2013-07-20 05:06:00,76.8,73.3,29.99,West,269,1.0,5.0,89,0.00,,BKN250,0.00,VWS V14.01,2013-07-20 09:06:00,
2013-07-20 05:11:00,76.9,73.1,29.99,SSW,209,0.0,7.0,88,0.00,,BKN250,0.00,VWS V14.01,2013-07-20 09:11:00,
2013-07-20 05:16:00,76.8,73.3,29.99,WSW,245,2.0,4.0,89,0.00,,BKN250,0.00,VWS V14.01,2013-07-20 09:16:00,
2013-07-20 05:21:00,76.8,73.3,29.99,WSW,247,2.0,4.0,89,0.00,,BKN250,0.00,VWS V14.01,2013-07-20 09:21:00,
2013-07-20 05:26:00,76.8,73.3,29.99,SW,223,0.0,6.0,89,0.00,,BKN250,0.00,VWS V14.01,2013-07-20 09:26:00,
2013-07-20 05:31:00,76.7,73.2,29.99,WSW,238,1.0,3.0,89,0.00,,BKN250,0.00,VWS V14.01,2013-07-20 09:31:00,
2013-07-20 05:36:00,76.7,73.2,29.99,SSW,201,3.0,5.0,89,0.00,,BKN250,0.00,VWS V14.01,2013-07-20 09:36:00,
2013-07-20 05:41:00,76.7,73.2,29.99,SW,233,5.0,6.0,89,0.00,,BKN250,0.00,VWS V14.01,2013-07-20 09:41:00,
2013-07-20 05:46:00,76.8,73.3,29.99,WSW,251,1.0,7.0,89,0.00,,BKN250,0.00,VWS V14.01,2013-07-20 09:46:00,
2013-07-20 05:51:00,76.8,73.0,29.99,SW,232,3.0,7.0,88,0.00,,BKN250,0.00,VWS V14.01,2013-07-20 09:51:00,
2013-07-20 05:56:00,76.8,73.0,29.99,SW,234,3.0,10.0,88,0.00,,BKN250,0.00,VWS V14.01,2013-07-20 09:56:00,
2013-07-20 06:01:00,76.8,73.0,29.99,WSW,257,2.0,6.0,88,0.00,,BKN250,0.00,VWS V14.01,2013-07-20 10:01:00,
2013-07-20 06:06:00,76.7,72.9,29.99,SSW,212,1.0,4.0,88,0.00,,BKN250,0.00,VWS V14.01,2013-07-20 10:06:00,
2013-07-20 06:11:00,76.7,72.9,29.99,SSW,204,1.0,5.0,88,0.00,,BKN250,0.00,VWS V14.01,2013-07-20 10:11:00,
2013-07-20 06:16:00,76.7,72.9,29.99,West,275,0.0,3.0,88,0.00,,BKN250,0.00,VWS V14.01,2013-07-20 10:16:00,
2013-07-20 06:21:00,76.6,72.8,29.99,SE,144,1.0,5.0,88,0.00,,BKN250,0.00,VWS V14.01,2013-07-20 10:21:00,
2013-07-20 06:26:00,76.6,72.8,29.99,WSW,258,3.0,3.0,88,0.00,,BKN250,0.00,VWS V14.01,2013-07-20 10:26:00,
2013-07-20 06:31:00,76.6,72.8,29.99,West,262,0.0,6.0,88,0.00,,BKN250,0.00,VWS V14.01,2013-07-20 10:31:00,
2013-07-20 06:36:00,76.6,72.8,29.99,SSW,210,2.0,6.0,88,0.00,,BKN250,0.00,VWS V14.01,2013-07-20 10:36:00,
2013-07-20 06:41:00,76.6,72.8,30.00,WSW,250,1.0,8.0,88,0.00,,BKN250,0.00,VWS V14.01,2013-07-20 10:41:00,
2013-07-20 06:46:00,76.7,72.9,29.99,SSW,207,2.0,4.0,88,0.00,,BKN250,0.00,VWS V14.01,2013-07-20 10:46:00,
2013-07-20 06:51:00,76.7,72.9,30.00,West,259,2.0,6.0,88,0.00,,BKN250,0.00,VWS V14.01,2013-07-20 10:51:00,
2013-07-20 06:56:00,76.8,73.0,30.00,West,265,3.0,4.0,88,0.00,,BKN250,0.00,VWS V14.01,2013-07-20 10:56:00,
2013-07-20 07:01:00,76.8,73.0,30.00,WSW,243,2.0,5.0,88,0.00,,BKN250,0.00,VWS V14.01,2013-07-20 11:01:00,
2013-07-20 07:06:00,76.8,73.0,30.00,SW,223,3.0,4.0,88,0.00,,BKN250,0.00,VWS V14.01,2013-07-20 11:06:00,
2013-07-20 07:11:00,76.9,73.1,30.00,West,274,3.0,5.0,88,0.00,,BKN250,0.00,VWS V14.01,2013-07-20 11:11:00,
2013-07-20 07:16:00,77.0,73.2,30.00,West,266,4.0,5.0,88,0.00,,BKN250,0.00,VWS V14.01,2013-07-20 11:16:00,
2013-07-20 07:21:00,77.0,73.2,30.00,West,278,1.0,4.0,88,0.00,,BKN250,0.00,VWS V14.01,2013-07-20 11:21:00,
2013-07-20 07:31:00,77.1,73.3,30.01,WSW,240,2.0,4.0,88,0.00,,BKN250,0.00,VWS V14.01,2013-07-20 11:31:00,
2013-07-20 07:36:00,77.1,72.9,30.01,SW,219,2.0,7.0,87,0.00,,BKN250,0.00,VWS V14.01,2013-07-20 11:36:00,
2013-07-20 07:41:00,77.1,72.9,30.01,WSW,257,2.0,4.0,87,0.00,,BKN250,0.00,VWS V14.01,2013-07-20 11:41:00,
2013-07-20 07:46:00,77.1,72.9,30.01,WSW,247,2.0,5.0,87,0.00,,BKN250,0.00,VWS V14.01,2013-07-20 11:46:00,
2013-07-20 07:51:00,77.1,72.9,30.01,WSW,245,0.0,6.0,87,0.00,,BKN250,0.00,VWS V14.01,2013-07-20 11:51:00,
2013-07-20 07:56:00,77.2,73.0,30.01,West,267,2.0,6.0,87,0.00,,BKN250,0.00,VWS V14.01,2013-07-20 11:56:00,
2013-07-20 08:01:00,77.2,73.0,30.01,WSW,255,2.0,4.0,87,0.00,,BKN250,0.00,VWS V14.01,2013-07-20 12:01:00,
2013-07-20 08:06:00,77.3,72.8,30.01,West,263,2.0,6.0,86,0.00,,BKN250,0.00,VWS V14.01,2013-07-20 12:06:00,
2013-07-20 08:11:00,77.4,72.9,30.02,West,260,3.0,5.0,86,0.00,,BKN250,0.00,VWS V14.01,2013-07-20 12:11:00,
2013-07-20 08:16:00,77.4,72.9,30.02,WNW,289,3.0,5.0,86,0.00,,BKN250,0.00,VWS V14.01,2013-07-20 12:16:00,
2013-07-20 08:21:00,77.5,73.0,30.02,WSW,240,1.0,4.0,86,0.00,,BKN250,0.00,VWS V14.01,2013-07-20 12:21:00,
2013-07-20 08:26:00,77.6,72.7,30.02,West,269,1.0,5.0,85,0.00,,BKN250,0.00,VWS V14.01,2013-07-20 12:26:00,
2013-07-20 08:31:00,77.8,72.9,30.02,SE,136,0.0,4.0,85,0.00,,BKN250,0.00,VWS V14.01,2013-07-20 12:31:00,
2013-07-20 08:36:00,78.0,73.1,30.01,WSW,257,1.0,4.0,85,0.00,,BKN250,0.00,VWS V14.01,2013-07-20 12:36:00,
2013-07-20 08:41:00,78.1,73.2,30.02,WSW,243,2.0,5.0,85,0.00,,BKN250,0.00,VWS V14.01,2013-07-20 12:41:00,
2013-07-20 08:46:00,78.3,73.1,30.01,South,174,0.0,4.0,84,0.00,,BKN250,0.00,VWS V14.01,2013-07-20 12:46:00,
2013-07-20 08:51:00,78.5,73.3,30.01,SE,126,1.0,4.0,84,0.00,,BKN250,0.00,VWS V14.01,2013-07-20 12:51:00,
2013-07-20 08:56:00,78.5,73.3,30.01,ENE,69,1.0,5.0,84,0.00,,OVC020,0.00,VWS V14.01,2013-07-20 12:56:00,
2013-07-20 09:01:00,78.6,73.4,30.01,SW,226,3.0,5.0,84,0.00,,OVC020,0.00,VWS V14.01,2013-07-20 13:01:00,
2013-07-20 09:06:00,78.5,73.3,30.01,WSW,253,4.0,6.0,84,0.00,,OVC020,0.00,VWS V14.01,2013-07-20 13:06:00,
2013-07-20 09:11:00,78.5,73.6,30.01,SE,136,1.0,5.0,85,0.00,,OVC020,0.00,VWS V14.01,2013-07-20 13:11:00,
2013-07-20 09:16:00,78.6,73.7,30.01,SW,230,2.0,4.0,85,0.00,,OVC020,0.00,VWS V14.01,2013-07-20 13:16:00,
2013-07-20 09:21:00,78.6,73.7,30.01,West,259,4.0,5.0,85,0.00,,OVC020,0.00,VWS V14.01,2013-07-20 13:21:00,
2013-07-20 09:26:00,78.8,73.6,30.00,WSW,243,3.0,6.0,84,0.00,,OVC020,0.00,VWS V14.01,2013-07-20 13:26:00,
2013-07-20 09:31:00,78.9,73.7,30.00,WSW,238,3.0,7.0,84,0.00,,OVC020,0.00,VWS V14.01,2013-07-20 13:31:00,
2013-07-20 09:36:00,79.0,73.8,30.01,West,260,3.0,5.0,84,0.00,,OVC020,0.00,VWS V14.01,2013-07-20 13:36:00,
2013-07-20 09:41:00,79.1,74.2,30.01,WSW,245,3.0,7.0,85,0.00,,OVC020,0.00,VWS V14.01,2013-07-20 13:41:00,
2013-07-20 09:46:00,79.2,73.9,30.00,West,262,2.0,7.0,84,0.00,,OVC020,0.00,VWS V14.01,2013-07-20 13:46:00,
2013-07-20 09:51:00,79.3,74.1,30.01,West,262,2.0,6.0,84,0.00,,OVC020,0.00,VWS V14.01,2013-07-20 13:51:00,
2013-07-20 09:56:00,79.5,74.2,30.00,SW,224,4.0,5.0,84,0.00,,BKN250,0.00,VWS V14.01,2013-07-20 13:56:00,
2013-07-20 10:01:00,79.6,74.0,30.00,WSW,258,6.0,7.0,83,0.00,,BKN250,0.00,VWS V14.01,2013-07-20 14:01:00,
2013-07-20 10:06:00,79.7,73.7,30.01,West,261,4.0,6.0,82,0.00,,BKN250,0.00,VWS V14.01,2013-07-20 14:06:00,
2013-07-20 10:11:00,79.8,74.2,30.01,WSW,244,2.0,5.0,83,0.00,,BKN250,0.00,VWS V14.01,2013-07-20 14:11:00,
2013-07-20 10:16:00,80.0,74.4,30.01,SSW,199,3.0,4.0,83,0.00,,BKN250,0.00,VWS V14.01,2013-07-20 14:16:00,
2013-07-20 10:21:00,80.1,74.1,30.01,WNW,287,3.0,6.0,82,0.00,,BKN250,0.00,VWS V14.01,2013-07-20 14:21:00,
2013-07-20 10:26:00,80.3,74.3,30.01,WSW,255,2.0,5.0,82,0.00,,BKN250,0.00,VWS V14.01,2013-07-20 14:26:00,
2013-07-20 10:31:00,80.5,74.5,30.01,WNW,292,2.0,5.0,82,0.00,,BKN250,0.00,VWS V14.01,2013-07-20 14:31:00,
2013-07-20 10:36:00,80.6,74.6,30.01,West,266,3.0,7.0,82,0.00,,BKN250,0.00,VWS V14.01,2013-07-20 14:36:00,
2013-07-20 10:41:00,80.7,74.7,30.01,NE,48,1.0,7.0,82,0.00,,BKN250,0.00,VWS V14.01,2013-07-20 14:41:00,
2013-07-20 10:46:00,80.9,74.5,30.01,West,259,6.0,6.0,81,0.00,,BKN250,0.00,VWS V14.01,2013-07-20 14:46:00,
2013-07-20 10:51:00,81.0,74.6,30.01,WSW,254,5.0,7.0,81,0.00,,BKN250,0.00,VWS V14.01,2013-07-20 14:51:00,
2013-07-20 10:56:00,80.9,74.5,30.01,West,269,2.0,7.0,81,0.00,,BKN250,0.00,VWS V14.01,2013-07-20 14:56:00,
2013-07-20 11:01:00,80.9,74.5,30.01,West,260,3.0,5.0,81,0.00,,BKN250,0.00,VWS V14.01,2013-07-20 15:01:00,
2013-07-20 11:06:00,81.3,74.9,30.01,NNW,328,1.0,5.0,81,0.00,,BKN250,0.00,VWS V14.01,2013-07-20 15:06:00,
2013-07-20 11:11:00,81.3,74.5,30.01,West,275,4.0,8.0,80,0.00,,BKN250,0.00,VWS V14.01,2013-07-20 15:11:00,
2013-07-20 11:16:00,81.2,74.8,30.01,East,98,1.0,5.0,81,0.00,,BKN250,0.00,VWS V14.01,2013-07-20 15:16:00,
2013-07-20 11:21:00,81.6,74.8,30.01,West,271,3.0,7.0,80,0.00,,BKN250,0.00,VWS V14.01,2013-07-20 15:21:00,
2013-07-20 11:26:00,81.3,74.5,30.01,WSW,240,4.0,8.0,80,0.00,,BKN250,0.00,VWS V14.01,2013-07-20 15:26:00,
2013-07-20 11:31:00,81.2,74.8,30.01,West,266,2.0,6.0,81,0.00,,BKN250,0.00,VWS V14.01,2013-07-20 15:31:00,
2013-07-20 11:36:00,81.3,74.9,30.01,West,266,0.0,6.0,81,0.00,,BKN250,0.00,VWS V14.01,2013-07-20 15:36:00,
2013-07-20 11:41:00,81.5,74.7,30.01,SSW,205,1.0,7.0,80,0.00,,BKN250,0.00,VWS V14.01,2013-07-20 15:41:00,
2013-07-20 11:46:00,81.9,75.1,30.01,WSW,252,3.0,5.0,80,0.00,,BKN250,0.00,VWS V14.01,2013-07-20 15:46:00,
2013-07-20 11:51:00,82.2,75.0,30.01,SW,231,4.0,6.0,79,0.00,,BKN250,0.00,VWS V14.01,2013-07-20 15:51:00,
2013-07-20 11:56:00,82.5,74.9,30.00,West,268,2.0,6.0,78,0.00,,BKN250,0.00,VWS V14.01,2013-07-20 15:56:00,
2013-07-20 12:01:00,82.7,74.8,30.00,SW,229,1.0,6.0,77,0.00,,BKN250,0.00,VWS V14.01,2013-07-20 16:01:00,
2013-07-20 12:06:00,82.9,74.9,30.00,West,273,3.0,6.0,77,0.00,,BKN250,0.00,VWS V14.01,2013-07-20 16:06:00,
2013-07-20 12:11:00,83.0,75.1,30.01,West,267,4.0,7.0,77,0.00,,BKN250,0.00,VWS V14.01,2013-07-20 16:11:00,
2013-07-20 12:16:00,83.2,75.2,30.01,West,262,1.0,4.0,77,0.00,,BKN250,0.00,VWS V14.01,2013-07-20 16:16:00,
2013-07-20 12:21:00,82.8,74.9,30.00,WSW,246,1.0,6.0,77,0.00,,BKN250,0.00,VWS V14.01,2013-07-20 16:21:00,
2013-07-20 12:26:00,82.8,75.2,30.00,East,96,2.0,3.0,78,0.00,,BKN250,0.00,VWS V14.01,2013-07-20 16:26:00,
2013-07-20 12:31:00,83.4,75.4,30.00,SSE,151,0.0,5.0,77,0.00,,BKN250,0.00,VWS V14.01,2013-07-20 16:31:00,
2013-07-20 12:36:00,84.1,75.7,30.00,West,276,2.0,4.0,76,0.00,,BKN250,0.00,VWS V14.01,2013-07-20 16:36:00,
2013-07-20 12:41:00,84.3,75.5,30.00,WNW,297,3.0,7.0,75,0.00,,BKN250,0.00,VWS V14.01,2013-07-20 16:41:00,
2013-07-20 12:46:00,84.9,76.9,29.99,SSW,205,2.0,8.0,77,0.00,,BKN250,0.00,VWS V14.01,2013-07-20 16:46:00,
2013-07-20 12:51:00,85.7,76.5,29.99,WSW,250,3.0,7.0,74,0.00,,BKN250,0.00,VWS V14.01,2013-07-20 16:51:00,
2013-07-20 12:56:00,85.8,76.2,29.99,West,266,4.0,7.0,73,0.00,,BKN200,0.00,VWS V14.01,2013-07-20 16:56:00,
2013-07-20 13:01:00,85.6,75.5,29.99,West,262,5.0,9.0,72,0.00,,BKN200,0.00,VWS V14.01,2013-07-20 17:01:00,
2013-07-20 13:06:00,85.5,75.4,29.98,West,262,3.0,7.0,72,0.00,,BKN200,0.00,VWS V14.01,2013-07-20 17:06:00,
2013-07-20 13:11:00,85.9,75.8,29.98,WNW,286,5.0,6.0,72,0.00,,BKN200,0.00,VWS V14.01,2013-07-20 17:11:00,
2013-07-20 13:16:00,86.1,76.4,29.98,SSW,212,3.0,6.0,73,0.00,,BKN200,0.00,VWS V14.01,2013-07-20 17:16:00,
2013-07-20 13:21:00,87.0,75.6,29.98,South,175,2.0,7.0,69,0.00,,BKN200,0.00,VWS V14.01,2013-07-20 17:21:00,
2013-07-20 13:26:00,87.3,75.9,29.97,West,277,8.0,8.0,69,0.00,,BKN200,0.00,VWS V14.01,2013-07-20 17:26:00,
2013-07-20 13:31:00,86.9,75.5,29.97,SW,228,5.0,8.0,69,0.00,,BKN200,0.00,VWS V14.01,2013-07-20 17:31:00,
2013-07-20 13:36:00,87.1,75.7,29.97,West,281,4.0,8.0,69,0.00,,BKN200,0.00,VWS V14.01,2013-07-20 17:36:00,
2013-07-20 13:41:00,87.4,76.0,29.96,SW,233,3.0,8.0,69,0.00,,BKN200,0.00,VWS V14.01,2013-07-20 17:41:00,
2013-07-20 13:46:00,88.1,76.2,29.96,West,262,6.0,6.0,68,0.00,,BKN200,0.00,VWS V14.01,2013-07-20 17:46:00,
2013-07-20 13:51:00,87.9,75.1,29.96,ESE,106,2.0,7.0,66,0.00,,BKN200,0.00,VWS V14.01,2013-07-20 17:51:00,
2013-07-20 13:56:00,88.1,75.8,29.96,WSW,251,3.0,5.0,67,0.00,,BKN250,0.00,VWS V14.01,2013-07-20 17:56:00,
2013-07-20 14:01:00,88.1,75.3,29.96,WSW,246,2.0,5.0,66,0.00,,BKN250,0.00,VWS V14.01,2013-07-20 18:01:00,
2013-07-20 14:06:00,88.3,76.0,29.95,ESE,103,3.0,4.0,67,0.00,,BKN250,0.00,VWS V14.01,2013-07-20 18:06:00,
2013-07-20 14:11:00,88.3,75.1,29.95,SSE,160,2.0,5.0,65,0.00,,BKN250,0.00,VWS V14.01,2013-07-20 18:11:00,
2013-07-20 14:16:00,88.0,75.7,29.95,West,269,2.0,5.0,67,0.00,,BKN250,0.00,VWS V14.01,2013-07-20 18:16:00,
2013-07-20 14:21:00,87.9,75.6,29.95,West,274,3.0,6.0,67,0.00,,BKN250,0.00,VWS V14.01,2013-07-20 18:21:00,
2013-07-20 14:26:00,87.7,75.4,29.95,WSW,238,1.0,7.0,67,0.00,,BKN250,0.00,VWS V14.01,2013-07-20 18:26:00,
2013-07-20 14:31:00,87.3,75.0,29.95,SW,234,3.0,7.0,67,0.00,,BKN250,0.00,VWS V14.01,2013-07-20 18:31:00,
2013-07-20 14:36:00,87.5,75.2,29.95,West,267,0.0,7.0,67,0.00,,BKN250,0.00,VWS V14.01,2013-07-20 18:36:00,
2013-07-20 14:51:00,88.5,74.8,29.94,WSW,248,3.0,7.0,64,0.00,,BKN250,0.00,VWS V14.01,2013-07-20 18:51:00,
2013-07-20 14:56:00,88.3,75.1,29.94,WSW,256,4.0,9.0,65,0.00,,BKN250,0.00,VWS V14.01,2013-07-20 18:56:00,
2013-07-20 15:01:00,88.2,75.0,29.94,WSW,246,4.0,5.0,65,0.00,,BKN250,0.00,VWS V14.01,2013-07-20 19:01:00,
2013-07-20 15:06:00,88.2,75.0,29.93,SE,133,0.0,10.0,65,0.00,,BKN250,0.00,VWS V14.01,2013-07-20 19:06:00,
2013-07-20 15:11:00,88.4,74.7,29.93,WSW,244,2.0,6.0,64,0.00,,BKN250,0.00,VWS V14.01,2013-07-20 19:11:00,
2013-07-20 15:21:00,87.8,74.1,29.93,West,259,0.0,7.0,64,0.00,,BKN250,0.00,VWS V14.01,2013-07-20 19:21:00,
2013-07-20 15:26:00,88.0,74.8,29.93,SE,131,1.0,7.0,65,0.00,,BKN250,0.00,VWS V14.01,2013-07-20 19:26:00,
2013-07-20 15:31:00,87.7,74.0,29.93,SW,232,5.0,8.0,64,0.00,,BKN250,0.00,VWS V14.01,2013-07-20 19:31:00,
2013-07-20 15:36:00,87.5,74.3,29.93,SW,236,3.0,7.0,65,0.00,,BKN250,0.00,VWS V14.01,2013-07-20 19:36:00,
2013-07-20 15:41:00,87.6,74.4,29.93,SW,233,2.0,7.0,65,0.00,,BKN250,0.00,VWS V14.01,2013-07-20 19:41:00,
2013-07-20 15:46:00,87.8,74.1,29.92,WNW,283,4.0,7.0,64,0.00,,BKN250,0.00,VWS V14.01,2013-07-20 19:46:00,
2013-07-20 15:51:00,88.6,74.9,29.92,WSW,248,4.0,7.0,64,0.00,,BKN250,0.00,VWS V14.01,2013-07-20 19:51:00,
2013-07-20 16:01:00,87.7,74.0,29.92,WSW,257,0.0,5.0,64,0.00,,BKN250,0.00,VWS V14.01,2013-07-20 20:01:00,
2013-07-20 16:06:00,87.2,74.5,29.92,SW,231,1.0,6.0,66,0.00,,BKN250,0.00,VWS V14.01,2013-07-20 20:06:00,
2013-07-20 16:11:00,86.9,74.6,29.92,SW,236,0.0,4.0,67,0.00,,BKN250,0.00,VWS V14.01,2013-07-20 20:11:00,
2013-07-20 16:16:00,87.1,74.4,29.92,SW,226,1.0,5.0,66,0.00,,BKN250,0.00,VWS V14.01,2013-07-20 20:16:00,
2013-07-20 16:21:00,87.6,74.8,29.91,WSW,240,2.0,5.0,66,0.00,,BKN250,0.00,VWS V14.01,2013-07-20 20:21:00,
2013-07-20 16:26:00,87.8,74.6,29.91,WSW,239,2.0,4.0,65,0.00,,BKN250,0.00,VWS V14.01,2013-07-20 20:26:00,
2013-07-20 16:31:00,87.7,74.9,29.91,WSW,251,3.0,4.0,66,0.00,,BKN250,0.00,VWS V14.01,2013-07-20 20:31:00,
2013-07-20 16:41:00,89.0,75.2,29.91,West,260,1.0,7.0,64,0.00,,BKN250,0.00,VWS V14.01,2013-07-20 20:41:00,
2013-07-20 16:46:00,89.5,74.8,29.91,SSE,167,2.0,4.0,62,0.00,,BKN250,0.00,VWS V14.01,2013-07-20 20:46:00,
2013-07-20 16:51:00,89.4,75.2,29.91,SSW,192,2.0,5.0,63,0.00,,BKN250,0.00,VWS V14.01,2013-07-20 20:51:00,
2013-07-20 16:56:00,89.4,76.1,29.91,East,98,2.0,6.0,65,0.00,,BKN250,0.00,VWS V14.01,2013-07-20 20:56:00,
2013-07-20 17:01:00,89.0,75.2,29.91,SE,124,2.0,9.0,64,0.00,,BKN250,0.00,VWS V14.01,2013-07-20 21:01:00,
2013-07-20 17:16:00,88.0,75.7,29.91,West,274,2.0,4.0,67,0.00,,BKN250,0.00,VWS V14.01,2013-07-20 21:16:00,
2013-07-20 17:26:00,88.3,75.1,29.91,WSW,250,0.0,3.0,65,0.00,,BKN250,0.00,VWS V14.01,2013-07-20 21:26:00,
2013-07-20 17:31:00,88.8,75.5,29.91,WNW,302,0.0,8.0,65,0.00,,BKN250,0.00,VWS V14.01,2013-07-20 21:31:00,
2013-07-20 17:36:00,88.8,75.5,29.90,SSW,203,2.0,6.0,65,0.00,,BKN250,0.00,VWS V14.01,2013-07-20 21:36:00,
2013-07-20 17:41:00,88.7,75.9,29.90,ESE,110,3.0,4.0,66,0.00,,BKN250,0.00,VWS V14.01,2013-07-20 21:41:00,
2013-07-20 17:46:00,88.8,75.5,29.90,WSW,246,2.0,5.0,65,0.00,,BKN250,0.00,VWS V14.01,2013-07-20 21:46:00,
2013-07-20 17:51:00,88.1,75.8,29.91,West,261,2.0,8.0,67,0.00,,BKN250,0.00,VWS V14.01,2013-07-20 21:51:00,
2013-07-20 17:56:00,87.3,75.4,29.90,SSE,162,0.0,3.0,68,0.00,,BKN250,0.00,VWS V14.01,2013-07-20 21:56:00,
2013-07-20 18:06:00,87.2,74.5,29.90,ENE,66,1.0,4.0,66,0.00,,BKN250,0.00,VWS V14.01,2013-07-20 22:06:00,
2013-07-20 18:11:00,87.5,74.3,29.91,West,266,2.0,3.0,65,0.00,,BKN250,0.00,VWS V14.01,2013-07-20 22:11:00,
2013-07-20 18:16:00,87.5,74.3,29.91,SSE,165,0.0,3.0,65,0.00,,BKN250,0.00,VWS V14.01,2013-07-20 22:16:00,
2013-07-20 18:21:00,87.1,74.8,29.91,WSW,248,2.0,3.0,67,0.00,,BKN250,0.00,VWS V14.01,2013-07-20 22:21:00,
2013-07-20 18:26:00,86.8,74.5,29.91,WSW,254,1.0,4.0,67,0.00,,BKN250,0.00,VWS V14.01,2013-07-20 22:26:00,
2013-07-20 18:31:00,86.6,74.3,29.91,WSW,248,1.0,3.0,67,0.00,,BKN250,0.00,VWS V14.01,2013-07-20 22:31:00,
2013-07-20 18:36:00,86.6,74.8,29.91,SSE,149,3.0,5.0,68,0.00,,BKN250,0.00,VWS V14.01,2013-07-20 22:36:00,
2013-07-20 18:41:00,86.5,74.7,29.91,SE,136,0.0,3.0,68,0.00,,BKN250,0.00,VWS V14.01,2013-07-20 22:41:00,
2013-07-20 18:46:00,86.5,75.1,29.91,WSW,254,0.0,2.0,69,0.00,,BKN250,0.00,VWS V14.01,2013-07-20 22:46:00,
2013-07-20 18:51:00,86.3,74.5,29.91,SW,233,0.0,3.0,68,0.00,,BKN250,0.00,VWS V14.01,2013-07-20 22:51:00,
2013-07-20 18:56:00,86.1,74.3,29.90,SSW,200,0.0,3.0,68,0.00,,BKN250,0.00,VWS V14.01,2013-07-20 22:56:00,
2013-07-20 19:01:00,86.0,74.7,29.91,SW,234,1.0,2.0,69,0.00,,BKN250,0.00,VWS V14.01,2013-07-20 23:01:00,
2013-07-20 19:06:00,85.8,74.5,29.91,WSW,257,0.0,2.0,69,0.00,,BKN250,0.00,VWS V14.01,2013-07-20 23:06:00,
2013-07-20 19:11:00,85.7,74.4,29.91,SSE,167,1.0,1.0,69,0.00,,BKN250,0.00,VWS V14.01,2013-07-20 23:11:00,
2013-07-20 19:16:00,85.5,74.6,29.91,SE,141,0.0,2.0,70,0.00,,BKN250,0.00,VWS V14.01,2013-07-20 23:16:00,
2013-07-20 19:21:00,85.3,74.4,29.91,SW,216,0.0,2.0,70,0.00,,BKN250,0.00,VWS V14.01,2013-07-20 23:21:00,
2013-07-20 19:26:00,85.2,74.7,29.91,SE,134,0.0,1.0,71,0.00,,BKN250,0.00,VWS V14.01,2013-07-20 23:26:00,
2013-07-20 19:31:00,85.0,74.6,29.92,SW,232,0.0,1.0,71,0.00,,BKN250,0.00,VWS V14.01,2013-07-20 23:31:00,
2013-07-20 19:41:00,84.6,74.6,29.92,West,269,0.0,1.0,72,0.00,,BKN250,0.00,VWS V14.01,2013-07-20 23:41:00,
2013-07-20 19:46:00,84.3,74.7,29.92,South,184,0.0,1.0,73,0.00,,BKN250,0.00,VWS V14.01,2013-07-20 23:46:00,
2013-07-20 19:56:00,84.3,74.3,29.93,West,259,1.0,2.0,72,0.00,,BKN250,0.00,VWS V14.01,2013-07-20 23:56:00,
2013-07-20 20:01:00,84.3,74.3,29.93,SSE,148,0.0,3.0,72,0.00,,BKN250,0.00,VWS V14.01,2013-07-21 00:01:00,
2013-07-20 20:11:00,84.1,74.1,29.93,WSW,242,0.0,1.0,72,0.00,,BKN250,0.00,VWS V14.01,2013-07-21 00:11:00,
2013-07-20 20:16:00,84.1,74.1,29.93,SW,234,0.0,2.0,72,0.00,,BKN250,0.00,VWS V14.01,2013-07-21 00:16:00,
2013-07-20 20:21:00,83.9,73.9,29.93,SW,234,0.0,1.0,72,0.00,,BKN250,0.00,VWS V14.01,2013-07-21 00:21:00,
2013-07-20 20:26:00,83.8,74.2,29.93,WSW,239,0.0,1.0,73,0.00,,BKN250,0.00,VWS V14.01,2013-07-21 00:26:00,
2013-07-20 20:36:00,82.8,75.2,29.93,SSE,148,0.0,1.0,78,0.00,,BKN250,0.00,VWS V14.01,2013-07-21 00:36:00,
2013-07-20 20:41:00,82.5,76.1,29.93,SSE,148,0.0,0.0,81,0.00,,BKN250,0.00,VWS V14.01,2013-07-21 00:41:00,
2013-07-20 20:46:00,81.7,76.0,29.93,SSE,148,0.0,0.0,83,0.00,,BKN250,0.00,VWS V14.01,2013-07-21 00:46:00,
2013-07-20 20:56:00,80.6,76.0,29.93,SSE,148,0.0,0.0,86,0.00,,BKN250,0.00,VWS V14.01,2013-07-21 00:56:00,
2013-07-20 21:06:00,79.9,75.3,29.94,SSE,148,0.0,0.0,86,0.00,,BKN250,0.00,VWS V14.01,2013-07-21 01:06:00,
2013-07-20 21:11:00,79.6,75.1,29.94,SSE,148,0.0,0.0,86,0.00,,BKN250,0.00,VWS V14.01,2013-07-21 01:11:00,
2013-07-20 21:16:00,79.3,75.4,29.94,SSE,148,0.0,0.0,88,0.00,,BKN250,0.00,VWS V14.01,2013-07-21 01:16:00,
2013-07-20 21:26:00,78.4,74.9,29.94,SSE,148,0.0,0.0,89,0.00,,BKN250,0.00,VWS V14.01,2013-07-21 01:26:00,
2013-07-20 21:36:00,78.1,74.9,29.95,SSE,148,0.0,0.0,90,0.00,,BKN250,0.00,VWS V14.01,2013-07-21 01:36:00,
2013-07-20 21:41:00,77.9,75.1,29.95,SSE,148,0.0,0.0,91,0.00,,BKN250,0.00,VWS V14.01,2013-07-21 01:41:00,
2013-07-20 21:46:00,77.7,74.9,29.95,SSE,148,0.0,0.0,91,0.00,,BKN250,0.00,VWS V14.01,2013-07-21 01:46:00,
2013-07-20 21:51:00,77.5,74.7,29.95,SSE,148,0.0,0.0,91,0.00,,BKN250,0.00,VWS V14.01,2013-07-21 01:51:00,
2013-07-20 21:56:00,77.6,74.1,29.95,SSE,148,0.0,0.0,89,0.00,,BKN250,0.00,VWS V14.01,2013-07-21 01:56:00,
2013-07-20 22:01:00,78.2,74.0,29.95,ESE,109,1.0,2.0,87,0.00,,BKN250,0.00,VWS V14.01,2013-07-21 02:01:00,
2013-07-20 22:06:00,79.1,74.2,29.95,SSW,198,1.0,2.0,85,0.00,,BKN250,0.00,VWS V14.01,2013-07-21 02:06:00,
2013-07-20 22:11:00,79.7,74.1,29.96,SE,142,0.0,2.0,83,0.00,,BKN250,0.00,VWS V14.01,2013-07-21 02:11:00,
2013-07-20 22:16:00,80.2,74.2,29.96,WNW,285,1.0,3.0,82,0.00,,BKN250,0.00,VWS V14.01,2013-07-21 02:16:00,
2013-07-20 22:21:00,80.5,74.1,29.96,South,169,0.0,5.0,81,0.00,,BKN250,0.00,VWS V14.01,2013-07-21 02:21:00,
2013-07-20 22:26:00,80.6,74.2,29.96,WNW,289,2.0,3.0,81,0.00,,BKN250,0.00,VWS V14.01,2013-07-21 02:26:00,
2013-07-20 22:36:00,80.5,74.1,29.97,SSE,164,1.0,2.0,81,0.00,,BKN250,0.00,VWS V14.01,2013-07-21 02:36:00,
2013-07-20 22:41:00,80.4,74.0,29.97,SE,139,1.0,2.0,81,0.00,,BKN250,0.00,VWS V14.01,2013-07-21 02:41:00,
2013-07-20 22:46:00,80.3,73.9,29.97,SSE,168,0.0,4.0,81,0.00,,BKN250,0.00,VWS V14.01,2013-07-21 02:46:00,
2013-07-20 22:51:00,80.1,74.1,29.97,ESE,117,2.0,4.0,82,0.00,,BKN250,0.00,VWS V14.01,2013-07-21 02:51:00,
2013-07-20 23:01:00,79.8,74.2,29.97,South,174,1.0,3.0,83,0.00,,BKN250,0.00,VWS V14.01,2013-07-21 03:01:00,
2013-07-20 23:06:00,79.7,74.1,29.97,East,101,1.0,4.0,83,0.00,,BKN250,0.00,VWS V14.01,2013-07-21 03:06:00,
2013-07-20 23:11:00,79.6,74.3,29.97,WSW,245,0.0,3.0,84,0.00,,BKN250,0.00,VWS V14.01,2013-07-21 03:11:00,
2013-07-20 23:16:00,79.4,74.2,29.96,WSW,238,0.0,3.0,84,0.00,,BKN250,0.00,VWS V14.01,2013-07-21 03:16:00,
2013-07-20 23:21:00,79.2,74.3,29.97,SW,214,2.0,4.0,85,0.00,,BKN250,0.00,VWS V14.01,2013-07-21 03:21:00,
2013-07-20 23:26:00,79.1,74.2,29.97,SSW,207,1.0,7.0,85,0.00,,BKN250,0.00,VWS V14.01,2013-07-21 03:26:00,
2013-07-20 23:31:00,79.0,74.1,29.97,South,190,0.0,5.0,85,0.00,,BKN250,0.00,VWS V14.01,2013-07-21 03:31:00,
2013-07-20 23:36:00,78.9,74.0,29.97,East,99,1.0,4.0,85,0.00,,BKN250,0.00,VWS V14.01,2013-07-21 03:36:00,
2013-07-20 23:41:00,78.8,73.9,29.97,SSE,158,0.0,7.0,85,0.00,,BKN250,0.00,VWS V14.01,2013-07-21 03:41:00,
2013-07-20 23:51:00,78.6,73.7,29.97,SW,235,2.0,2.0,85,0.00,,BKN250,0.00,VWS V14.01,2013-07-21 03:51:00,
2013-07-20 23:56:00,78.6,73.7,29.97,SSW,205,1.0,4.0,85,0.00,,BKN250,0.00,VWS V14.01,2013-07-21 03:56:00,